Miscellaneous Local Product
Issued by NWS Hastings, NE

Home | Current Version | Previous Version | Text Only | Print | Product List | Glossary Off
Versions: 1 2 3 4 5 6 7 8 9 10 11 12 13 14 15 16 17 18 19 20 21 22 23 24 25 26 27 28 29 30 31 32 33 34 35 36 37 38 39 40 41 42 43 44 45 46 47 48 49 50

636
AXUS43 KGID 241002
MISGRI

GID CWA HOURLY WEATHER ROUNDUP
NATIONAL WEATHER SERVICE HASTINGS NE
500 AM CDT SAT SEP 24 2016

NOTE: "FAIR" INDICATES FEW OR NO CLOUDS BELOW 12,000 FEET WITH NO
SIGNIFICANT WEATHER AND/OR OBSTRUCTIONS TO VISIBILITY.

...SOUTH CENTRAL NEBRASKA...

CITY           SKY/WX    TMP DP  RH WIND       PRES   REMARKS
GRAND ISLAND   MOCLDY    70  64  81 SE17      29.88S
HASTINGS       PTCLDY    69  64  84 SE10      29.88F
KEARNEY        CLOUDY    72  64  78 S16G22    29.85F
ORD            LGT RAIN  71  63  75 SE12G21   29.84S
YORK           MOCLDY    72  64  78 S12       29.91S
AURORA         CLOUDY    71  66  84 SE13      29.90R
LEXINGTON      CLOUDY    71  65  81 S13       29.82F
HOLDREGE       CLOUDY    70  65  85 S13       29.85F
HEBRON         CLEAR     71  65  80 SE10      29.90F

...NEBRASKA PANHANDLE...

CITY           SKY/WX    TMP DP  RH WIND       PRES   REMARKS
CHADRON        CLOUDY    52  45  77 SW18      29.89R
ALLIANCE       CLOUDY    47  43  86 W21G31    29.93R
SCOTTSBLUFF    CLOUDY    47  45  93 W10       29.96F
SIDNEY         LGT RAIN  46  40  79 NW17      29.95F

...WESTERN AND NORTH CENTRAL NEBRASKA...

CITY           SKY/WX    TMP DP  RH WIND       PRES   REMARKS
VALENTINE      CLOUDY    56  52  86 NE5       29.75F
AINSWORTH      CLOUDY    61  54  78 CALM      29.81F
ONEILL         CLOUDY    72  63  72 SE16G25   29.85F
BROKEN BOW     MOCLDY    68  65  90 SE9       29.83F
IMPERIAL       CLOUDY    54  46  74 NW23      29.92R
NORTH PLATTE   CLOUDY    60  55  83 W13       29.83R
MCCOOK         CLOUDY    63  54  72 W12       29.84F

...EASTERN NEBRASKA...

CITY           SKY/WX    TMP DP  RH WIND       PRES   REMARKS
NORFOLK        CLEAR     70  62  76 S13G22    29.90S
SO SIOUX CITY  MOCLDY    69  65  86 SE10      29.93S
TEKAMAH        CLOUDY    70  64  81 SE9       29.94S
COLUMBUS       CLEAR    N/A N/A N/A SE9       29.91S
ALBION         MOCLDY    70  63  77 SE12      29.89S
OMAHA EPPLEY   PTCLDY    72  63  73 SE13      29.95S
OFFUTT AFB     CLEAR     71  65  82 SE7       29.95S
MILLARD        CLEAR     72  65  79 SE5       29.94S
LINCOLN        MOCLDY    73  64  73 S10       29.93S
NEBRASKA CITY  CLEAR     69  59  71 S6        29.97S
BEATRICE       MOCLDY    73  65  74 S10       29.94S
FALLS CITY     CLEAR     69  65  86 SE7       29.97R

...NORTHERN KANSAS...

CITY           SKY/WX    TMP DP  RH WIND       PRES   REMARKS
GOODLAND       PTCLDY    52  44  74 W20       29.93R
HILL CITY      CLOUDY    66  63  90 CALM      29.88S
NORTON         SUNNY     68  57  68 S8        29.86
PHILLIPSBURG   CLOUDY    72  68  88 S7        29.87R
SMITH CENTER   MOCLDY    70  64  83 E12       29.87R
HAYS           CLOUDY    73  61  64 S14       29.86F THUNDER
CONCORDIA      CLEAR     70  67  90 SE12      29.90S
SALINA         CLEAR     73  67  81 SE13      29.90F
TOPEKA         CLEAR     72  65  78 SE6       29.98R



USA.gov is the U.S. government's official web portal to all federal, state and local government web resources and services.